TimeMST,TemperatureF,Dew PointF,Humidity,Sea Level PressureIn,VisibilityMPH,Wind Direction,Wind SpeedMPH,Gust SpeedMPH,PrecipitationIn,Events,Conditions,WindDirDegrees,DateUTC
12:55 AM,35.6,19.4,52,30.10,10.0,SSW,3.5,-,N/A,,Clear,200,2013-02-14 07:55:00
1:55 AM,35.6,19.4,52,30.11,10.0,Calm,Calm,-,N/A,,Clear,0,2013-02-14 08:55:00
2:55 AM,33.8,19.4,56,30.08,10.0,Calm,Calm,-,N/A,,Clear,0,2013-02-14 09:55:00
3:55 AM,37.4,15.8,41,30.08,10.0,Calm,Calm,-,N/A,,Clear,0,2013-02-14 10:55:00
4:55 AM,35.6,15.8,44,30.08,10.0,Calm,Calm,-,N/A,,Clear,0,2013-02-14 11:55:00
5:55 AM,37.4,19.4,48,30.09,10.0,Calm,Calm,-,N/A,,Clear,0,2013-02-14 12:55:00
6:55 AM,33.8,19.4,56,30.12,10.0,South,3.5,-,N/A,,Clear,190,2013-02-14 13:55:00
7:55 AM,37.4,23.0,56,30.12,10.0,SSE,3.5,-,N/A,,Clear,160,2013-02-14 14:55:00
8:55 AM,44.6,21.2,39,30.12,10.0,Calm,Calm,-,N/A,,Clear,0,2013-02-14 15:55:00
9:55 AM,48.2,19.4,32,30.11,10.0,Calm,Calm,-,N/A,,Clear,0,2013-02-14 16:55:00
10:55 AM,51.8,17.6,26,30.11,10.0,ESE,3.5,-,N/A,,Clear,110,2013-02-14 17:55:00
11:55 AM,53.6,17.6,24,30.11,10.0,Calm,Calm,-,N/A,,Partly Cloudy,0,2013-02-14 18:55:00
12:55 PM,57.2,15.8,20,30.07,10.0,NW,8.1,-,N/A,,Partly Cloudy,310,2013-02-14 19:55:00
1:55 PM,60.8,15.8,17,30.02,10.0,Variable,6.9,-,N/A,,Clear,0,2013-02-14 20:55:00
2:55 PM,60.8,15.8,17,30.01,10.0,Variable,6.9,-,N/A,,Partly Cloudy,0,2013-02-14 21:55:00
3:55 PM,60.8,15.8,17,30.01,10.0,NW,9.2,-,N/A,,Partly Cloudy,310,2013-02-14 22:55:00
4:55 PM,59.0,15.8,19,30.02,10.0,WNW,9.2,-,N/A,,Partly Cloudy,300,2013-02-14 23:55:00
5:55 PM,53.6,17.6,24,30.04,10.0,WNW,8.1,-,N/A,,Scattered Clouds,290,2013-02-15 00:55:00
6:55 PM,46.4,19.4,34,30.08,10.0,WSW,6.9,-,N/A,,Scattered Clouds,250,2013-02-15 01:55:00
7:55 PM,46.4,21.2,37,30.09,10.0,SW,8.1,-,N/A,,Mostly Cloudy,220,2013-02-15 02:55:00
8:55 PM,44.6,19.4,37,30.09,10.0,WSW,9.2,-,N/A,,Mostly Cloudy,250,2013-02-15 03:55:00
9:55 PM,44.6,19.4,37,30.10,10.0,SW,6.9,-,N/A,,Mostly Cloudy,230,2013-02-15 04:55:00
10:55 PM,42.8,21.2,42,30.12,10.0,SSW,6.9,-,N/A,,Mostly Cloudy,200,2013-02-15 05:55:00
11:55 PM,46.4,19.4,34,30.09,10.0,Calm,Calm,-,N/A,,Mostly Cloudy,0,2013-02-15 06:55:00